Location: Arlington
(40.6323°N, 74.1651°W)
Time: 21:10:43
(UTC+00:00)

NOAA 11 - Pass Details

Date: 27 February 2020
Orbit: 834 x 849 km, 98.4° (Epoch: 09 April)

Event Time Altitude Azimuth Distance (km) Brightness Sun altitude
Rises 01:01:55 0° 216° (SW) 3,379 7.6 -26.8°
Reaches altitude 10° 01:05:36 10° 241° (WSW) 2,448 7.2 -27.5°
Maximum altitude 01:08:13 14° 271° (W) 2,205 7.2 -28.0°
Drops below altitude 10° 01:10:50 10° 300° (WNW) 2,452 7.5 -28.4°
Sets 01:14:33 0° 326° (NW) 3,390 8.0 -29.1°
